North Myrtle Beach, SC

12:44 AM EDT on October 22, 2019 (GMT -0400)
Grand Strand

Weather History for KCRE - August, 2019

Change the Weather History Date:

Thursday, August 22, 2019

  Actual Average Record
Temperature  
Mean Temperature 84 °F 79 °F  
Max Temperature 89 °F 86 °F 96 °F (1968)
Min Temperature 79 °F 71 °F 62 °F (1953)
Degree Days  
Heating Degree Days 0 0  
Month to date heating degree days 0 0  
Since 1 June heating degree days 0 0  
Since 1 July heating degree days 0 0  
Cooling Degree Days 19 14  
Month to date cooling degree days 366 313  
Year to date cooling degree days 1658 1358  
Since 1 June cooling degree days 1265 1146  
Growing Degree Days 34 (Base 50)    
Moisture  
Dew Point 75 °F    
Average Humidity 77    
Maximum Humidity 91    
Minimum Humidity 63    
Precipitation  
Precipitation T in 0.28 in 3.26 in (2006)
Month to date precipitation 8.27 5.01  
Year to date precipitation 31.28 32.95  
Sea Level Pressure  
Sea Level Pressure 30.05 in    
Wind  
Wind Speed 12 mph (SW)    
Max Wind Speed 21 mph    
Max Gust Speed 25 mph    
Visibility 10 miles    
Events      
T = Trace of Precipitation, MM = Missing Value Source: NWS Daily Summary

Daily Weather History Graph

Daily Weather History Graph

Search for Another Location

Airport or City:

Astronomy

Aug. 22, 2019 Rise Set
Actual Time 6:41 AM EDT 7:53 PM EDT
Civil Twilight 6:15 AM EDT 8:19 PM EDT
Nautical Twilight 5:44 AM EDT 8:50 PM EDT
Astronomical Twilight 5:12 AM EDT 9:22 PM EDT
Moon No Moon Rise 12:56 PM EDT
Length of Visible Light 14h 03m
Length of Day
13h 11m
Waning Gibbous, 60% of the Moon is Illuminated
Aug 22
Waning Gibbous
Aug 23
Last Quarter
Aug 30
New
Sep 5
First Quarter
Sep 14
Full

Hourly Weather History & Observations

Time (EDT) Temp. Heat Index Dew Point Humidity Pressure Visibility Wind Dir Wind Speed Gust Speed Precip Events Conditions
12:53 AM 82.0 °F 87.9 °F 73.9 °F 76% 30.07 in 10.0 mi WSW 8.1 mph - N/A   Clear
1:53 AM 80.1 °F 84.5 °F 73.9 °F 81% 30.07 in 10.0 mi SW 9.2 mph - N/A   Clear
2:53 AM 80.1 °F 84.5 °F 73.9 °F 81% 30.04 in 10.0 mi SW 9.2 mph - N/A   Clear
3:53 AM 80.1 °F 84.5 °F 73.9 °F 81% 30.03 in 10.0 mi SW 9.2 mph - N/A   Clear
4:53 AM 80.1 °F 84.5 °F 73.9 °F 81% 30.03 in 10.0 mi SW 8.1 mph - N/A   Clear
5:53 AM 80.1 °F 85.1 °F 75.0 °F 85% 30.04 in 10.0 mi SW 5.8 mph - N/A   Clear
6:53 AM 79.0 °F - 75.0 °F 88% 30.06 in 10.0 mi SW 6.9 mph - N/A   Clear
7:53 AM 80.1 °F 85.4 °F 75.9 °F 87% 30.08 in 10.0 mi WSW 10.4 mph - N/A   Clear
8:53 AM 82.0 °F 89.4 °F 75.9 °F 82% 30.09 in 10.0 mi WSW 6.9 mph - N/A   Clear
9:53 AM 84.9 °F 93.3 °F 75.0 °F 72% 30.09 in 10.0 mi WSW 8.1 mph - N/A   Clear
10:53 AM 87.1 °F 95.4 °F 73.9 °F 65% 30.08 in 10.0 mi WSW 8.1 mph - N/A   Clear
11:53 AM 88.0 °F 98.5 °F 75.9 °F 67% 30.08 in 10.0 mi South 13.8 mph - N/A   Scattered Clouds
12:53 PM 88.0 °F 98.5 °F 75.9 °F 67% 30.06 in 10.0 mi South 15.0 mph - N/A   Scattered Clouds
1:53 PM 87.1 °F 97.3 °F 75.9 °F 69% 30.05 in 10.0 mi South 13.8 mph - N/A   Scattered Clouds
2:53 PM 86.0 °F 98.3 °F 78.1 °F 77% 30.03 in 10.0 mi SSW 13.8 mph - 0.00 in   Partly Cloudy
3:53 PM 87.1 °F 98.8 °F 77.0 °F 72% 30.01 in 10.0 mi SSW 19.6 mph - N/A   Clear
4:53 PM 87.1 °F 98.8 °F 77.0 °F 72% 30.00 in 10.0 mi SSW 15.0 mph - N/A   Clear
5:53 PM 84.9 °F 94.1 °F 75.9 °F 74% 30.00 in 10.0 mi SSW 12.7 mph - N/A   Clear
6:53 PM 84.9 °F 93.3 °F 75.0 °F 72% 30.01 in 10.0 mi SSW 16.1 mph - N/A   Clear
7:53 PM 84.0 °F 91.9 °F 75.0 °F 74% 30.02 in 10.0 mi SSW 16.1 mph - N/A   Clear
8:53 PM 84.0 °F 92.6 °F 75.9 °F 76% 30.04 in 10.0 mi SSW 15.0 mph - N/A   Clear
9:53 PM 82.9 °F 90.2 °F 75.0 °F 77% 30.05 in 10.0 mi SSW 12.7 mph - N/A   Clear
10:53 PM 82.9 °F 90.2 °F 75.0 °F 77% 30.05 in 10.0 mi SSW 15.0 mph - N/A   Clear
11:53 PM 82.9 °F 89.4 °F 73.9 °F 74% 30.05 in 10.0 mi SSW 13.8 mph - N/A   Clear